Regional Weather Roundup
Issued by NWS

Home | Current Version | Previous Version | Graphics & Text | Print | Product List | Glossary On
Versions: 1 2 3 4 5 6 7 8 9 10 11 12 13 14 15 16 17 18 19 20 21 22 23 24 25 26 27 28 29 30 31 32 33 34 35 36 37 38 39 40 41 42 43 44 45 46 47 48 49 50
000
ASUS45 KCYS 241310
RWRWY

WYOMING REGIONAL WEATHER ROUNDUP
NATIONAL WEATHER SERVICE CHEYENNE WY
700 AM MDT THU JUL 24 2014

NOTE:  "FAIR" INDICATES FEW OR NO CLOUDS BELOW 12,000 FEET
WITH NO SIGNIFICANT WEATHER AND/OR OBSTRUCTIONS TO VISIBILITY.

WYZ001-241400-
YELLOWSTONE NATIONAL PARK

CITY           SKY/WX    TMP DP  RH WIND       PRES   REMARKS
LK YELLOWSTONE   N/A     43  38  82 CALM      30.26S
W YELLOWSTONE  NOT AVBL

$$
WYZ002>013-054>058-071-098>099-241400-
NORTHERN WYOMING

CITY           SKY/WX    TMP DP  RH WIND       PRES   REMARKS
JACKSON        PTCLDY    48  41  76 N6        30.16S
CODY           NOT AVBL
GREYBULL       SUNNY     69  46  43 NW3       29.88R
WORLAND        SUNNY     77  41  27 S10       29.89F
SHERIDAN       MOSUNNY   63  57  81 N9        29.83F
BUFFALO        MOSUNNY   86  36  16 VRB3G17   29.93S
GILLETTE       PTSUNNY   81  43  26 SW15      29.89F
HULETT         FAIR      77  54  44 MISG      29.90
NEWCASTLE      FAIR      77  52  41 SE7       29.96

$$
WYZ014>020-022>026-101>103-241400-
CENTRAL WYOMING

CITY           SKY/WX    TMP DP  RH WIND       PRES   REMARKS
BIG PINEY      PTCLDY    49  46  90 N5        30.22S
PINEDALE       MOSUNNY   52  48  87 W3        30.23S
DUBOIS         FAIR      59  37  44 W9        30.19R
LANDER         CLEAR     74  41  30 S16       30.04F
RIVERTON       CLEAR     74  40  29 SW12      30.05S
CASPER         PTSUNNY   72  41  32 SW9       30.05F
DOUGLAS        MOSUNNY   72  48  42 NW5       30.04F

$$
WYZ021-027>030-104>119-241400-
SOUTHERN WYOMING

CITY           SKY/WX    TMP DP  RH WIND       PRES   REMARKS
EVANSTON       PTCLDY    71  39  31 S22G31    30.23S
KEMMERER       MOSUNNY   63  37  39 W3        30.25R
FORT BRIDGER   FAIR      76  36  23 SW26G33   30.26R
ROCK SPRINGS   CLOUDY    74  40  29 S24G41    30.21S
DIXON          FAIR      63  42  45 CALM      30.28S
RAWLINS        MOSUNNY   72  38  29 W7        30.24R
SARATOGA       FAIR      64  41  42 SE16      30.27F
LARAMIE        PTSUNNY   65  43  44 S8        30.28S
CHEYENNE       PTSUNNY   71  47  42 SW8       30.17R
TORRINGTON     MOSUNNY   67  61  81 E7        29.99S
PINE BLUFFS    FAIR      64  59  82 SW6       30.10S

$$



USA.gov is the U.S. government's official web portal to all federal, state and local government web resources and services.